Погода в Гибралтаре

Гибралтар     36°07′59″N   5°21′11″W
темп.,
°C
ветер,
м/с
пор.,
м/с
влажн.,
%
обл.,
%
осадки,
мм/ч
давл.,
гПа
погр.,
м
13 августа, сб
сб1323:00+25в448289 0.0 101440
02:00+24вюв2287100 0.0 101422
05:00+24ссв128691 0.0 101213
08:00+24з22815 0.0 101213
11:00+25всв11734 0.0 101232
14:00+23юв238095 0.0 101171
17:00+24вюв337138 0.0 101085
20:00+27ююв2272100 0.0 100949
14 августа, вс
вс1423:00+25зюз127943 0.0 101233
02:00+24в4785100 0.0 1013127
05:00+24сз33845 0.0 101130
08:00+24з448086 0.0 101155
11:00+26зюз5759100 0.0 101286
14:00+30зюз793898 0.0 1011112
17:00+30з912335 0.0 1010125
20:00+28з912410 0.0 1009141
15 августа, пн
пн1523:00+23зюз913720 0.0 1012410
02:00+22з813790 0.0 1013443
05:00+22зсз813810 0.0 1011458
08:00+21з711820 0.0 1012419
11:00+24з710630 0.0 1012507
14:00+28зюз79460 0.0 1011132
17:00+29зюз911400 0.0 1009142
20:00+27зюз913440 0.0 1008207
16 августа, вт
вт1623:00+22з914730 0.0 1011462
02:00+21зсз813780 0.0 1012485
05:00+22з913800 0.0 1010500
08:00+21з811790 0.0 1011388
11:00+24з810610 0.0 1012519
14:00+28зюз79440 0.0 1011145
17:00+29з811390 0.0 1009155
20:00+27з912500 0.0 1009187
17 августа, ср
ср1723:00+23з914750 0.0 1012442
02:00+22з711810 0.0 1012343
05:00+21з69820 0.0 1011250
08:00+20з69760 0.0 1012218
11:00+24зюз68540 0.0 1013373
14:00+27зюз79420 0.0 1012158
17:00+29зюз79390 0.0 1010150
20:00+27зюз912500 0.0 1011152